Regional Weather Roundup
Issued by NWS New Orleans/Baton Rouge, LA

Home | Current Version | Previous Version | Text Only | Print | Product List | Glossary On
Versions: 1 2 3 4 5 6 7 8 9 10 11 12 13 14 15 16 17 18 19 20 21 22 23 24 25 26 27 28 29 30 31 32 33 34 35 36 37 38 39 40 41 42 43 44 45 46 47 48 49 50
114
ASUS44 KLIX 221205
RWRLIX
NEW ORLEANS REGIONAL WEATHER ROUNDUP
NATIONAL WEATHER SERVICE NEW ORLEANS LA
700 AM CDT WED OCT 22 2014

NOTE: "FAIR" INDICATES FEW OR NO CLOUDS BELOW 12,000 FEET WITH NO
      SIGNIFICANT WEATHER AND/OR OBSTRUCTIONS TO VISIBILITY.
      SKY/WX - SKY CONDITION AND SIGNIFICANT WEATHER.
      TMP - AIR TEMPERATURE.     DP    - DEWPOINT TEMPERATURE.
      RH  - RELATIVE HUMIDITY.   PRES  - PRESSURE.
      HI  - HEAT INDEX.          WCI   - WIND CHILL INDEX.

*  THESE STATIONS ARE NOT NWS OR FAA STATIONS AND ARE NOT UNDER
   NWS QUALITY CONTROL.

LAZ038-040-048-061>063-065>067-069-221300-
SOUTHEAST LOUISIANA

CITY           SKY/WX    TMP DP  RH WIND       PRES   REMARKS
N.O. AUDUBON     N/A     62  61  97 MISG        N/A
6HR MIN TEMP:  62; 6HR MAX TEMP:  72;

N.O. INTL ARPT PTCLDY    67  60  78 NE12      30.04S
6HR MIN TEMP:  61; 6HR MAX TEMP:  69;

N.O. LAKEFRONT CLEAR     68  59  73 NE18      30.05R
6HR MIN TEMP:  68; 6HR MAX TEMP:  72; 6HR PCP: TRACE;

N.O. DOWNTOWN*   N/A     66  54  63 NE5       30.05S
6HR MIN TEMP:  66; 6HR MAX TEMP:  70;

SLIDELL        CLEAR     52  50  93 N3        30.06R
6HR MIN TEMP:  52; 6HR MAX TEMP:  56;

BATON ROUGE    CLEAR     58  54  86 NE6       30.07R
6HR MIN TEMP:  55; 6HR MAX TEMP:  62;

BOOTHVILLE     CLEAR     73  60  63 NE9       30.03R
6HR MIN TEMP:  68; 6HR MAX TEMP:  73;

BELLE CHASSE   CLEAR     61  56  83 NE6       30.04R
6HR MIN TEMP:  56; 6HR MAX TEMP:  62;

BOGALUSA*        N/A     53  50  90 N3        30.09S
6HR MIN TEMP:  52; 6HR MAX TEMP:  56;

NEW ROADS*       N/A     59  55  89 NE6       30.07S
6HR MIN TEMP:  55; 6HR MAX TEMP:  61;

GONZALES*        N/A     58  58 100 CALM      30.06R
6HR MIN TEMP:  57; 6HR MAX TEMP:  60;

HAMMOND*       CLEAR     59  52  77 NE3       30.08S
HOUMA*         CLEAR     61  59  94 N9        30.04R
PORT FOURCHON* SUNNY     70  64  83 NE8       30.06R

$$

MSZ070-080>082-221300-
SOUTHERN MISSISSIPPI

CITY           SKY/WX    TMP DP  RH WIND       PRES   REMARKS
MCCOMB         CLEAR     58  51  78 NE6       30.09R
6HR MIN TEMP:  56; 6HR MAX TEMP:  62;

GULFPORT       CLEAR     58  52  80 N7        30.05R
6HR MIN TEMP:  56; 6HR MAX TEMP:  59;

BILOXI         CLEAR     58  53  84 NE3       30.06R
6HR MIN TEMP:  57; 6HR MAX TEMP:  62;

PASCAGOULA     CLEAR     52  50  93 CALM      30.06R
6HR MIN TEMP:  49; 6HR MAX TEMP:  54;

STENNIS ARPT*  CLEAR     57  52  82 N7        30.06

$$

COASTAL OBSERVATIONS
LAKE AND NEARSHORE STATIONS

STATION/POSITION TIME  TEMP    WIND        PRES    WAVE
                       AIR SEA DIR/SP/G            HT/PER
                 (UTC) (F)     (DEG/KT/KT) (MB)    (FT/S)
PASCAGOULA       1200   60      20/  8/ 11 1017.0
WAVELAND YACHT   1200   63      30/ 13/ 15 1017.0
GRAND ISLE       1200   71 75   50/  9/ 12 1017.1
SOUTHWEST PASS   1200   73 83              1016.5
NEW CANAL        1200   68 71   60/ 15/ 17 1017.6
SHELL BEACH      1200   69 68   40/ 15/ 18 1017.1

OFFSHORE STATIONS

STATION/POSITION TIME  TEMP    WIND        PRES    WAVE
                       AIR SEA DIR/SP/G            HT/PER
                 (UTC) (F)     (DEG/KT/KT) (MB)    (FT/S)
64 S DAUPHIN ISL 1104   75 79   50/ 16/ 19 1016.6    3/ 4

$$




USA.gov is the U.S. government's official web portal to all federal, state and local government web resources and services.